| time (UTC) | temp F | wind direction | speed MPH | gust MPH | rain 1hr in | rain 24hr in | rain mn in | humidity % | barometer mb |
| 20260510071003 | 49 | 278 | 4.0 | 11.0 | 0.00 | 0.03 | 0.00 | 63 | 1007.3 |
| 20260510070004 | 49 | 279 | 3.0 | 8.0 | 0.00 | 0.03 | 0.00 | 63 | 1007.2 |
| 20260510065003 | 49 | 276 | 2.0 | 6.0 | 0.00 | 0.03 | 0.00 | 63 | 1007.0 |
| 20260510064003 | 49 | 264 | 2.0 | 7.0 | 0.00 | 0.03 | 0.00 | 64 | 1006.9 |
| 20260510063024 | 49 | 276 | 3.0 | 9.0 | 0.00 | 0.03 | 0.00 | 67 | 1006.9 |
| 20260510062003 | 49 | 265 | 2.0 | 6.0 | 0.00 | 0.03 | 0.00 | 69 | 1006.8 |
| 20260510061003 | 49 | 269 | 2.0 | 6.0 | 0.00 | 0.03 | 0.00 | 70 | 1006.8 |
| 20260510060003 | 49 | 276 | 3.0 | 11.0 | 0.00 | 0.03 | 0.00 | 70 | 1006.6 |
| 20260510055003 | 50 | 273 | 4.0 | 8.0 | 0.00 | 0.03 | 0.00 | 70 | 1006.5 |
| 20260510054003 | 50 | 279 | 4.0 | 10.0 | 0.00 | 0.03 | 0.00 | 71 | 1006.5 |
| 20260510053003 | 50 | 278 | 5.0 | 13.0 | 0.00 | 0.03 | 0.00 | 72 | 1006.3 |
| 20260510052003 | 50 | 275 | 5.0 | 13.0 | 0.00 | 0.03 | 0.00 | 72 | 1006.1 |
| 20260510051003 | 50 | 279 | 4.0 | 10.0 | 0.00 | 0.03 | 0.00 | 74 | 1005.8 |
| 20260510050003 | 50 | 281 | 3.0 | 7.0 | 0.00 | 0.03 | 0.00 | 77 | 1005.8 |
| 20260510045003 | 50 | 277 | 2.0 | 7.0 | 0.00 | 0.03 | 0.00 | 79 | 1005.7 |
| 20260510044003 | 50 | 264 | 1.0 | 4.0 | 0.00 | 0.03 | 0.00 | 82 | 1005.6 |
| 20260510043024 | 50 | 268 | 2.0 | 7.0 | 0.00 | 0.03 | 0.00 | 84 | 1005.5 |
| 20260510042024 | 51 | 257 | 1.0 | 4.0 | 0.00 | 0.03 | 0.00 | 85 | 1005.4 |
| 20260510041003 | 51 | 264 | 1.0 | 5.0 | 0.00 | 0.03 | 0.00 | 86 | 1005.5 |
| 20260510040003 | 51 | 266 | 2.0 | 6.0 | 0.00 | 0.03 | 0.00 | 87 | 1005.3 |
| 20260510035003 | 51 | 276 | 1.0 | 4.0 | 0.00 | 0.03 | 0.03 | 88 | 1005.2 |
| 20260510034003 | 50 | 269 | 1.0 | 4.0 | 0.00 | 0.03 | 0.03 | 89 | 1005.2 |
| 20260510033003 | 50 | 279 | 0.0 | 3.0 | 0.00 | 0.03 | 0.03 | 89 | 1005.0 |
| 20260510032003 | 50 | 258 | 0.0 | 1.0 | 0.00 | 0.03 | 0.03 | 90 | 1004.9 |
| 20260510031003 | 50 | 274 | 0.0 | 1.0 | 0.00 | 0.03 | 0.03 | 90 | 1004.7 |
| 20260510030004 | 50 | 0 | 0.0 | 0.0 | 0.00 | 0.03 | 0.03 | 90 | 1004.6 |
| 20260510025003 | 50 | 0 | 0.0 | 0.0 | 0.00 | 0.03 | 0.03 | 90 | 1004.6 |
| 20260510024024 | 50 | 150 | 0.0 | 2.0 | 0.00 | 0.03 | 0.03 | 89 | 1004.7 |
| 20260510023003 | 50 | 175 | 0.0 | 1.0 | 0.00 | 0.03 | 0.03 | 89 | 1004.5 |
| 20260510022003 | 51 | 159 | 0.0 | 2.0 | 0.00 | 0.03 | 0.03 | 88 | 1004.4 |
| 20260510021024 | 51 | 158 | 0.0 | 2.0 | 0.00 | 0.03 | 0.03 | 88 | 1004.2 |
| 20260510020003 | 52 | 145 | 0.0 | 3.0 | 0.00 | 0.03 | 0.03 | 87 | 1004.2 |
| 20260510015003 | 52 | 163 | 1.0 | 6.0 | 0.00 | 0.03 | 0.03 | 87 | 1004.2 |
| 20260510014003 | 52 | 172 | 1.0 | 3.0 | 0.00 | 0.03 | 0.03 | 88 | 1004.1 |
| 20260510013003 | 53 | 156 | 3.0 | 7.0 | 0.00 | 0.03 | 0.03 | 88 | 1004.1 |
| 20260510012003 | 53 | 153 | 1.0 | 5.0 | 0.00 | 0.03 | 0.03 | 88 | 1003.9 |
| 20260510011003 | 53 | 167 | 2.0 | 7.0 | 0.00 | 0.03 | 0.03 | 88 | 1003.9 |
| 20260510010024 | 53 | 162 | 3.0 | 9.0 | 0.00 | 0.03 | 0.03 | 88 | 1003.7 |
| 20260510005003 | 54 | 152 | 2.0 | 8.0 | 0.00 | 0.03 | 0.03 | 88 | 1003.6 |
| 20260510004003 | 54 | 168 | 2.0 | 7.0 | 0.00 | 0.03 | 0.03 | 88 | 1003.5 |
| 20260510003003 | 54 | 158 | 1.0 | 3.0 | 0.03 | 0.03 | 0.03 | 88 | 1003.1 |
| 20260510002024 | 54 | 169 | 1.0 | 4.0 | 0.03 | 0.03 | 0.03 | 88 | 1002.8 |
| 20260510001003 | 54 | 163 | 1.0 | 9.0 | 0.03 | 0.03 | 0.03 | 87 | 1002.6 |
| 20260510000025 | 55 | 164 | 1.0 | 4.0 | 0.03 | 0.03 | 0.03 | 86 | 1002.5 |
| 20260509235003 | 55 | 136 | 0.0 | 1.0 | 0.03 | 0.03 | 0.03 | 86 | 1002.5 |
| 20260509234003 | 57 | 261 | 0.0 | 3.0 | 0.03 | 0.03 | 0.03 | 83 | 1002.6 |
| 20260509233003 | 58 | 224 | 0.0 | 2.0 | 0.00 | 0.00 | 0.00 | 78 | 1002.7 |
| 20260509232003 | 58 | 152 | 1.0 | 3.0 | 0.00 | 0.00 | 0.00 | 74 | 1002.2 |
| 20260509231003 | 58 | 126 | 1.0 | 4.0 | 0.00 | 0.00 | 0.00 | 74 | 1002.0 |
| 20260509230003 | 58 | 126 | 1.0 | 3.0 | 0.00 | 0.00 | 0.00 | 74 | 1002.3 |
| 20260509225003 | 58 | 131 | 1.0 | 4.0 | 0.00 | 0.00 | 0.00 | 74 | 1002.4 |
| 20260509224024 | 58 | 144 | 1.0 | 3.0 | 0.00 | 0.00 | 0.00 | 74 | 1002.6 |
| 20260509223003 | 58 | 120 | 1.0 | 3.0 | 0.00 | 0.00 | 0.00 | 74 | 1002.6 |
| 20260509222003 | 57 | 122 | 1.0 | 4.0 | 0.00 | 0.00 | 0.00 | 74 | 1002.7 |
| 20260509221003 | 57 | 127 | 2.0 | 4.0 | 0.00 | 0.00 | 0.00 | 72 | 1002.9 |
| 20260509220003 | 58 | 135 | 1.0 | 4.0 | 0.00 | 0.00 | 0.00 | 72 | 1003.1 |
| 20260509215003 | 58 | 160 | 1.0 | 6.0 | 0.00 | 0.00 | 0.00 | 71 | 1003.5 |
| 20260509214003 | 58 | 155 | 2.0 | 5.0 | 0.00 | 0.00 | 0.00 | 71 | 1003.3 |
| 20260509213003 | 58 | 152 | 2.0 | 8.0 | 0.00 | 0.00 | 0.00 | 71 | 1003.2 |
| 20260509212024 | 59 | 174 | 3.0 | 8.0 | 0.00 | 0.00 | 0.00 | 70 | 1003.3 |
| 20260509211003 | 59 | 144 | 3.0 | 7.0 | 0.00 | 0.00 | 0.00 | 70 | 1003.2 |
| 20260509210024 | 59 | 152 | 3.0 | 7.0 | 0.00 | 0.00 | 0.00 | 69 | 1003.3 |
| 20260509205003 | 60 | 151 | 3.0 | 7.0 | 0.00 | 0.00 | 0.00 | 69 | 1003.1 |
| 20260509204003 | 60 | 156 | 2.0 | 10.0 | 0.00 | 0.00 | 0.00 | 68 | 1003.1 |
| 20260509203003 | 60 | 161 | 4.0 | 11.0 | 0.00 | 0.00 | 0.00 | 67 | 1003.4 |
| 20260509202003 | 61 | 145 | 3.0 | 7.0 | 0.00 | 0.00 | 0.00 | 67 | 1003.0 |
| 20260509201003 | 60 | 142 | 3.0 | 6.0 | 0.00 | 0.00 | 0.00 | 68 | 1003.1 |
| 20260509200003 | 61 | 136 | 4.0 | 10.0 | 0.00 | 0.00 | 0.00 | 67 | 1003.5 |
| 20260509195003 | 62 | 147 | 4.0 | 8.0 | 0.00 | 0.00 | 0.00 | 66 | 1003.6 |
| 20260509194003 | 62 | 135 | 5.0 | 9.0 | 0.00 | 0.00 | 0.00 | 64 | 1003.6 |
| 20260509193003 | 63 | 152 | 4.0 | 12.0 | 0.00 | 0.00 | 0.00 | 64 | 1003.7 |
| 20260509192024 | 62 | 148 | 5.0 | 11.0 | 0.00 | 0.00 | 0.00 | 65 | 1003.9 |
| 20260509191003 | 62 | 142 | 4.0 | 10.0 | 0.00 | 0.00 | 0.00 | 63 | 1004.0 |
| 20260509190003 | 64 | 150 | 4.0 | 13.0 | 0.00 | 0.00 | 0.00 | 61 | 1004.0 |
| 20260509185003 | 65 | 136 | 4.0 | 8.0 | 0.00 | 0.00 | 0.00 | 62 | 1004.1 |
| 20260509184004 | 64 | 151 | 4.0 | 9.0 | 0.00 | 0.00 | 0.00 | 62 | 1004.3 |
| 20260509183003 | 64 | 165 | 6.0 | 12.0 | 0.00 | 0.00 | 0.00 | 61 | 1004.4 |
| 20260509182024 | 64 | 135 | 5.0 | 10.0 | 0.00 | 0.00 | 0.00 | 61 | 1004.5 |
| 20260509181004 | 62 | 138 | 5.0 | 12.0 | 0.00 | 0.00 | 0.00 | 61 | 1004.7 |
| 20260509180003 | 63 | 137 | 5.0 | 9.0 | 0.00 | 0.00 | 0.00 | 59 | 1004.6 |
| 20260509175004 | 65 | 147 | 5.0 | 11.0 | 0.00 | 0.00 | 0.00 | 56 | 1004.8 |
| 20260509174003 | 64 | 142 | 5.0 | 15.0 | 0.00 | 0.00 | 0.00 | 54 | 1004.9 |
| 20260509173003 | 64 | 136 | 4.0 | 11.0 | 0.00 | 0.00 | 0.00 | 56 | 1005.0 |
| 20260509172024 | 63 | 127 | 5.0 | 10.0 | 0.00 | 0.00 | 0.00 | 52 | 1005.0 |
| 20260509171003 | 64 | 126 | 4.0 | 9.0 | 0.00 | 0.00 | 0.00 | 51 | 1005.0 |
| 20260509170003 | 64 | 130 | 4.0 | 9.0 | 0.00 | 0.00 | 0.00 | 54 | 1005.5 |
| 20260509165003 | 64 | 138 | 4.0 | 7.0 | 0.00 | 0.00 | 0.00 | 54 | 1005.5 |
| 20260509164003 | 63 | 152 | 5.0 | 9.0 | 0.00 | 0.00 | 0.00 | 50 | 1005.5 |
| 20260509163003 | 64 | 151 | 4.0 | 11.0 | 0.00 | 0.00 | 0.00 | 51 | 1005.5 |
| 20260509162003 | 63 | 145 | 5.0 | 10.0 | 0.00 | 0.00 | 0.00 | 50 | 1005.6 |
| 20260509161003 | 62 | 145 | 4.0 | 10.0 | 0.00 | 0.00 | 0.00 | 55 | 1005.6 |
| 20260509160003 | 62 | 126 | 4.0 | 8.0 | 0.00 | 0.00 | 0.00 | 60 | 1005.9 |
| 20260509155025 | 61 | 116 | 5.0 | 11.0 | 0.00 | 0.00 | 0.00 | 58 | 1006.0 |
| 20260509154003 | 62 | 134 | 4.0 | 8.0 | 0.00 | 0.00 | 0.00 | 58 | 1006.3 |
| 20260509153003 | 61 | 119 | 3.0 | 9.0 | 0.00 | 0.00 | 0.00 | 59 | 1006.3 |
| 20260509152004 | 60 | 129 | 3.0 | 8.0 | 0.00 | 0.00 | 0.00 | 60 | 1006.5 |
| 20260509151003 | 60 | 130 | 4.0 | 9.0 | 0.00 | 0.00 | 0.00 | 62 | 1006.7 |
| 20260509150024 | 60 | 138 | 3.0 | 6.0 | 0.00 | 0.00 | 0.00 | 64 | 1006.6 |
| 20260509145003 | 58 | 124 | 3.0 | 7.0 | 0.00 | 0.00 | 0.00 | 65 | 1006.8 |
| 20260509144024 | 58 | 133 | 3.0 | 7.0 | 0.00 | 0.00 | 0.00 | 66 | 1006.9 |
| 20260509143003 | 57 | 126 | 2.0 | 6.0 | 0.00 | 0.00 | 0.00 | 65 | 1007.0 |
| 20260509142003 | 56 | 131 | 3.0 | 6.0 | 0.00 | 0.00 | 0.00 | 66 | 1007.1 |
| 20260509141003 | 56 | 137 | 3.0 | 6.0 | 0.00 | 0.00 | 0.00 | 66 | 1007.1 |
| 20260509140004 | 55 | 116 | 3.0 | 7.0 | 0.00 | 0.00 | 0.00 | 69 | 1007.2 |
| 20260509135003 | 55 | 115 | 2.0 | 6.0 | 0.00 | 0.00 | 0.00 | 66 | 1007.3 |
| 20260509134003 | 54 | 123 | 2.0 | 5.0 | 0.00 | 0.00 | 0.00 | 67 | 1007.3 |
| 20260509133003 | 53 | 115 | 2.0 | 5.0 | 0.00 | 0.00 | 0.00 | 69 | 1007.4 |
| 20260509132024 | 52 | 114 | 2.0 | 4.0 | 0.00 | 0.00 | 0.00 | 69 | 1007.4 |
| 20260509131003 | 51 | 116 | 2.0 | 4.0 | 0.00 | 0.00 | 0.00 | 71 | 1007.5 |
| 20260509130003 | 50 | 124 | 1.0 | 4.0 | 0.00 | 0.00 | 0.00 | 72 | 1007.7 |
| 20260509125003 | 49 | 102 | 1.0 | 5.0 | 0.00 | 0.00 | 0.00 | 75 | 1007.6 |
| 20260509124003 | 48 | 113 | 1.0 | 4.0 | 0.00 | 0.00 | 0.00 | 75 | 1007.6 |
| 20260509123003 | 47 | 112 | 0.0 | 3.0 | 0.00 | 0.00 | 0.00 | 79 | 1007.7 |
| 20260509122003 | 45 | 85 | 0.0 | 3.0 | 0.00 | 0.00 | 0.00 | 81 | 1007.9 |
| 20260509121003 | 43 | 0 | 0.0 | 0.0 | 0.00 | 0.00 | 0.00 | 85 | 1008.0 |
| 20260509120003 | 41 | 0 | 0.0 | 0.0 | 0.00 | 0.00 | 0.00 | 87 | 1007.9 |
| 20260509115003 | 40 | 0 | 0.0 | 0.0 | 0.00 | 0.00 | 0.00 | 89 | 1008.1 |
| 20260509114003 | 39 | 0 | 0.0 | 0.0 | 0.00 | 0.00 | 0.00 | 91 | 1008.1 |
| 20260509113003 | 38 | 0 | 0.0 | 0.0 | 0.00 | 0.00 | 0.00 | 92 | 1008.2 |
| 20260509112003 | 37 | 0 | 0.0 | 0.0 | 0.00 | 0.00 | 0.00 | 93 | 1008.3 |
| 20260509111003 | 37 | 0 | 0.0 | 0.0 | 0.00 | 0.00 | 0.00 | 93 | 1008.2 |
| 20260509110003 | 36 | 0 | 0.0 | 0.0 | 0.00 | 0.00 | 0.00 | 93 | 1008.2 |
| 20260509105003 | 35 | 0 | 0.0 | 0.0 | 0.00 | 0.00 | 0.00 | 93 | 1008.1 |
| 20260509104003 | 34 | 0 | 0.0 | 0.0 | 0.00 | 0.00 | 0.00 | 93 | 1007.9 |
| 20260509103003 | 33 | 0 | 0.0 | 0.0 | 0.00 | 0.00 | 0.00 | 93 | 1007.8 |
| 20260509102003 | 33 | 0 | 0.0 | 0.0 | 0.00 | 0.00 | 0.00 | 93 | 1007.8 |
| 20260509101003 | 32 | 0 | 0.0 | 0.0 | 0.00 | 0.00 | 0.00 | 93 | 1007.8 |
| 20260509100004 | 32 | 0 | 0.0 | 0.0 | 0.00 | 0.00 | 0.00 | 92 | 1007.8 |
| 20260509095003 | 31 | 0 | 0.0 | 0.0 | 0.00 | 0.00 | 0.00 | 92 | 1007.7 |
| 20260509094004 | 31 | 0 | 0.0 | 0.0 | 0.00 | 0.00 | 0.00 | 91 | 1007.7 |
| 20260509093003 | 31 | 0 | 0.0 | 0.0 | 0.00 | 0.00 | 0.00 | 91 | 1007.8 |
| 20260509092024 | 32 | 0 | 0.0 | 0.0 | 0.00 | 0.00 | 0.00 | 91 | 1007.8 |
| 20260509091003 | 32 | 0 | 0.0 | 0.0 | 0.00 | 0.00 | 0.00 | 91 | 1007.9 |
| 20260509090003 | 32 | 0 | 0.0 | 0.0 | 0.00 | 0.00 | 0.00 | 91 | 1008.0 |
| 20260509085003 | 32 | 0 | 0.0 | 0.0 | 0.00 | 0.00 | 0.00 | 90 | 1008.0 |
| 20260509084003 | 32 | 0 | 0.0 | 0.0 | 0.00 | 0.00 | 0.00 | 90 | 1008.0 |
| 20260509083024 | 32 | 0 | 0.0 | 0.0 | 0.00 | 0.00 | 0.00 | 89 | 1008.2 |
| 20260509082003 | 32 | 0 | 0.0 | 0.0 | 0.00 | 0.00 | 0.00 | 88 | 1008.3 |
| 20260509081024 | 33 | 0 | 0.0 | 0.0 | 0.00 | 0.00 | 0.00 | 88 | 1008.2 |
| 20260509080003 | 33 | 0 | 0.0 | 0.0 | 0.00 | 0.00 | 0.00 | 88 | 1008.3 |
| 20260509075003 | 33 | 0 | 0.0 | 0.0 | 0.00 | 0.00 | 0.00 | 87 | 1008.3 |
| 20260509074003 | 33 | 0 | 0.0 | 0.0 | 0.00 | 0.00 | 0.00 | 87 | 1008.3 |
| 20260509073003 | 34 | 0 | 0.0 | 0.0 | 0.00 | 0.00 | 0.00 | 86 | 1008.3 |
| 20260509072003 | 34 | 0 | 0.0 | 0.0 | 0.00 | 0.00 | 0.00 | 87 | 1008.4 |